Location: Newark
(42.8481°N, 0.4872°E)
Time: 08:57:01
(UTC+00:00)

SR - Pass Details

Date: 02 November 2020
Orbit: 579 x 876 km, 66.7° (Epoch: 29 November)

Event Time Altitude Azimuth Distance (km) Brightness Sun altitude
Rises 08:40:10 0° 337° (NNW) 3,056 ? 18.8°
Reaches altitude 10° 08:42:41 10° 348° (NNW) 2,187 ? 19.1°
Maximum altitude 08:47:05 30° 49° (NE) 1,327 ? 19.7°
Drops below altitude 10° 08:51:47 10° 110° (ESE) 2,352 ? 20.3°
Sets 08:54:35 0° 121° (ESE) 3,326 ? 20.7°
